Location: Newport
(44.6370°N, 124.0520°W)
Time: 13:00:49
(UTC-07:00)

N. Korean satellite - Pass Details

Date: 14 October 2017
Orbit: 459 x 517 km, 97.2° (Epoch: 19 October)

Event Time Altitude Azimuth Distance (km) Brightness Sun altitude
Rises 19:32:23 0° 178° (S) 2,545 10.2 -11.4°
Reaches altitude 10° 19:34:30 10° 183° (S) 1,660 9.3 -11.8°
Maximum altitude 19:37:59 51° 260° (W) 610 7.5 -12.4°
Drops below altitude 10° 19:41:26 10° 338° (NNW) 1,644 9.5 -13.0°
Sets 19:43:31 0° 343° (NNW) 2,518 10.4 -13.4°
